Snowfall_Accumulation
1.4 1.5 1.4 1.1 0.9 0.7 0.6 0.5 0.4 0.7 0.6 0.3 0.3 0.0 0.2 0.5 0.0 0.0 0.0 0.0 0.3 0.0 0.0 0.0 0.0 0.0 0.0 0.0 0.0 0.0 0.0 0.0 0.0 1.7 1.3 0.9 0.0 0.0 0.0 0.0 0.0 0.0 0.0
1.3 1.6 1.9 1.7 1.3 1.3 1.2 1.1 0.6 1.1 1.5 0.8 0.5 0.0 0.0 0.0 0.0 0.0 0.0 0.0 0.0 0.0 0.0 0.0 0.0 0.0 0.0 0.0 0.0 0.6 0.0 0.1 1.5 1.1 0.3 0.2 0.1 0.0 0.0 0.0 0.0 0.1 0.2
1.0 1.5 1.9 2.0 1.6 1.4 1.9 2.0 1.8 1.9 2.1 0.3 0.1 0.2 0.3 0.0 0.0 0.0 0.0 0.4 0.0 0.0 0.0 0.0 0.0 0.0 0.0 0.1 1.1 0.4 0.2 1.4 0.7 1.1 0.3 0.0 0.0 0.0 0.0 0.0 0.0 0.0 0.0
3.9 1.1 1.8 2.3 2.2 2.4 2.9 2.7 3.3 3.0 3.8 1.0 0.9 0.9 0.5 0.4 0.2 0.2 0.2 0.1 0.1 0.0 0.0 0.0 0.0 0.0 0.3 0.8 1.4 0.8 0.6 0.4 0.3 0.8 0.4 1.0 0.5 0.1 0.6 0.2 0.0 0.0 0.0
2.3 3.3 2.4 2.5 2.7 2.8 3.2 3.1 4.3 3.3 4.9 4.3 2.5 2.0 1.2 1.5 0.5 0.9 0.5 0.5 1.1 0.3 1.2 2.6 1.9 1.0 0.7 0.4 0.6 0.9 0.3 0.3 1.4 3.0 2.8 1.6 0.9 0.3 0.1 0.0 0.1 0.0 0.0
5.2 2.1 2.3 3.1 2.2 2.9 3.6 3.7 5.1 3.7 4.7 5.1 3.5 3.5 1.2 1.5 1.4 0.9 1.3 1.5 2.3 1.6 2.2 1.8 1.2 1.9 1.4 0.1 0.1 0.3 0.5 2.0 3.5 4.4 3.5 1.6 0.0 0.1 0.1 0.2 1.2 1.9 1.9
6.5 6.3 1.9 2.3 2.9 2.9 3.4 4.0 6.3 5.5 5.8 6.1 4.3 3.5 2.8 1.2 1.4 0.6 1.8 3.4 3.5 2.7 3.1 2.6 2.8 0.8 0.6 0.4 0.1 0.6 1.0 2.6 2.7 0.9 0.5 0.3 0.5 0.1 2.0 3.7 2.6 2.9 1.6
5.3 5.2 7.7 7.7 5.1 3.0 4.4 8.6 9.3 7.7 8.7 11.5 11.5 10.4 11.9 8.4 4.2 4.7 4.8 2.7 1.6 1.2 0.8 0.8 0.2 0.1 0.1 0.5 0.8 3.1 1.8 0.6 0.0 0.1 0.2 0.4 1.1 1.5 2.0 2.1 1.0 1.0 0.5
3.3 4.2 5.1 7.1 8.1 7.5 7.8 8.8 8.0 10.4 12.6 11.9 10.5 9.8 6.6 5.7 5.9 5.2 4.9 3.4 1.8 0.5 0.3 0.1 0.2 0.6 0.4 0.9 2.9 2.8 0.8 0.2 0.1 0.1 0.7 0.7 0.2 0.1 0.2 2.1 3.3 3.0 2.0
1.0 3.1 3.0 4.3 6.7 10.7 11.5 11.4 12.6 12.2 12.8 9.8 8.3 8.3 5.7 5.4 5.2 5.8 7.1 7.9 12.4 6.4 1.0 0.9 0.0 0.5 1.0 3.9 2.6 2.1 2.2 0.2 0.8 0.7 0.4 0.1 0.0 0.1 0.2 0.2 4.3 9.5 4.5
0.0 2.5 3.2 4.2 6.1 10.2 13.8 13.5 12.9 12.3 10.8 10.4 6.6 7.0 6.0 4.3 7.3 8.7 12.5 12.1 11.8 11.4 9.6 5.3 0.8 0.3 2.7 1.5 0.6 1.0 1.8 0.2 0.3 0.2 1.1 0.2 0.1 0.8 0.9 1.2 2.7 9.9 12.7
3.4 5.7 6.1 5.4 5.1 5.9 7.0 7.4 7.8 7.7 7.8 9.6 10.1 10.1 7.9 5.8 4.5 9.7 11.3 15.4 15.3 15.5 13.7 3.8 3.0 3.0 0.5 0.2 0.1 0.6 0.6 0.7 0.6 1.3 1.4 1.0 0.4 0.4 0.2 0.3 0.8 2.0 3.8
1.5 0.9 1.4 0.5 0.2 0.8 1.9 3.9 5.2 6.4 7.0 7.9 8.0 8.0 7.8 8.0 6.9 5.6 8.4 12.3 15.3 18.1 15.3 13.3 6.6 1.6 1.8 0.0 0.2 0.3 0.2 0.6 1.9 3.0 2.6 0.8 0.3 0.7 1.1 3.9 4.4 4.5 5.2
0.1 0.0 0.0 0.0 0.1 0.3 0.5 1.8 2.7 4.4 5.4 6.1 6.7 6.7 6.5 6.1 6.7 5.4 6.8 7.8 10.7 18.4 20.0 11.3 6.8 5.0 4.6 5.3 6.2 2.8 0.7 1.1 3.6 4.8 3.5 2.3 2.4 4.1 4.2 5.1 9.4 9.2 11.9
0.1 0.0 0.0 0.0 0.0 0.1 0.2 0.4 1.7 3.1 4.6 5.5 6.3 5.6 6.1 6.0 7.1 8.8 10.1 9.4 8.5 14.3 18.8 20.7 9.4 6.9 5.3 6.0 6.5 1.9 2.2 3.0 4.4 5.5 4.4 4.1 4.8 5.9 6.8 8.6 11.6 13.7 14.0
0.1 0.0 0.0 0.0 0.0 0.0 0.0 0.1 0.1 0.5 1.3 1.8 2.8 3.6 2.9 4.5 4.0 4.6 5.1 8.1 9.6 7.8 7.9 12.4 15.0 15.6 14.9 14.4 11.6 10.2 9.6 9.6 5.5 8.2 8.8 6.8 8.7 9.2 10.3 11.7 13.3 14.6 13.0
0.7 0.3 0.1 0.0 0.0 0.0 0.0 0.3 0.2 0.1 0.0 0.2 0.7 1.6 1.8 1.7 1.5 2.0 3.7 5.3 5.4 5.1 5.6 7.6 12.0 16.1 19.8 21.7 19.3 20.3 19.3 15.5 11.7 12.4 11.4 9.7 10.9 11.1 11.3 12.6 11.9 11.6 10.0
1.9 1.9 1.3 0.5 0.3 0.1 0.2 0.0 0.1 0.1 0.0 0.0 0.0 0.2 0.8 0.9 0.9 1.6 2.4 1.7 2.5 3.3 5.5 8.6 10.6 13.3 15.2 19.7 22.7 26.2 25.5 24.1 23.4 17.0 16.8 16.0 12.5 15.5 15.6 14.3 11.1 11.1 9.9
3.9 3.9 3.2 2.3 1.8 1.0 0.6 0.5 0.8 0.7 0.3 0.0 0.0 0.0 0.2 0.1 0.8 1.2 1.1 1.3 2.6 5.7 6.5 7.2 8.5 9.0 10.6 12.6 14.9 18.2 23.5 28.6 32.7 31.3 29.0 26.5 23.3 25.4 18.4 14.5 13.7 10.4 9.4
5.1 5.1 4.6 4.0 3.4 2.7 1.6 1.5 1.3 1.9 1.9 1.5 1.0 0.6 0.6 0.6 2.0 0.9 1.7 1.8 2.6 4.6 4.8 6.4 6.7 6.2 9.0 9.9 12.4 13.0 15.3 19.5 23.8 25.3 27.1 27.2 30.3 32.5 31.9 25.7 21.2 19.0 15.2
4.9 5.0 4.7 5.0 4.7 4.3 3.9 3.7 2.9 2.6 3.1 3.1 2.9 3.3 3.7 1.9 0.7 1.3 1.2 2.1 2.2 2.7 3.6 4.7 5.5 7.0 7.1 8.1 10.6 12.8 14.8 15.7 17.4 22.6 26.8 27.0 27.5 28.3 24.1 24.4 26.0 25.5 25.1
4.7 5.1 4.4 4.4 4.8 5.3 4.7 5.0 5.1 4.8 3.9 3.9 3.6 3.5 3.6 3.3 3.2 3.2 2.8 2.8 2.3 3.2 3.0 4.2 5.2 5.7 8.3 12.7 15.1 16.6 16.1 16.3 16.6 19.3 19.8 19.7 20.8 21.6 21.9 22.8 22.6 22.8 23.7
3.2 3.7 3.6 3.5 3.4 4.0 5.1 4.6 4.4 4.4 4.1 3.5 3.4 3.8 3.7 4.1 3.8 3.5 3.5 3.7 4.4 4.6 4.8 3.9 3.9 4.7 4.6 7.7 12.5 18.6 21.6 17.7 17.5 19.4 20.7 18.6 16.8 17.4 20.3 22.1 21.0 22.4 22.1
2.1 2.6 2.5 2.5 2.7 2.6 3.0 3.0 3.5 4.1 4.1 3.7 3.2 3.1 3.5 3.6 3.1 3.1 3.1 3.3 3.5 4.0 4.2 4.5 5.5 5.7 5.3 7.4 10.6 13.1 17.5 18.4 19.6 20.4 22.3 24.6 18.2 14.6 14.2 15.8 14.9 16.1 17.1
1.7 1.7 1.9 2.0 2.2 2.2 2.2 2.6 2.9 2.9 3.0 3.1 3.4 3.7 3.5 3.7 3.8 3.5 3.3 3.4 4.1 4.1 3.9 4.4 5.6 7.0 7.2 9.4 11.4 11.7 14.1 14.7 16.1 16.1 15.9 15.9 15.8 12.3 13.0 14.1 12.3 14.3 13.7
1.7 1.7 1.6 2.0 2.1 2.3 2.6 2.5 2.5 2.5 3.1 2.9 3.3 4.0 4.0 4.1 3.9 3.2 3.5 4.3 4.4 4.1 3.7 4.1 5.2 7.1 8.4 10.2 11.1 14.0 14.9 14.2 12.4 10.3 11.7 15.5 13.2 11.5 11.7 15.0 13.5 15.0 14.3